This is the latest recevied weather packets stored in our database for station/object KK7HEZ. If no packets are shown the sender has not sent any weather packets the latest 1 day(s).
| Time | Temp. | Humidity | Pressure | Rain* | Wind** | Luminosity | Snow |
|---|---|---|---|---|---|---|---|
| 1778006362 | 15° C | 83% | 1017.3 hPa | 0 mm | 0.45 m/s, 150° | 73 W/m² | - |
| 1778006059 | 15° C | 83% | 1017.4 hPa | 0 mm | 0.89 m/s, 182° | 73 W/m² | - |
| 1778005756 | 15° C | 83% | 1017.1 hPa | 0 mm | 0.45 m/s, 169° | 72 W/m² | - |
| 1778005453 | 15° C | 83% | 1017.2 hPa | 0 mm | 0 m/s | 78 W/m² | - |
| 1778005149 | 15° C | 83% | 1017.1 hPa | 0 mm | 0 m/s | 73 W/m² | - |
| 1778004847 | 15° C | 83% | 1017.3 hPa | 0 mm | 0 m/s | 72 W/m² | - |
| 1778004543 | 15° C | 83% | 1017.3 hPa | 0 mm | 0 m/s | 73 W/m² | - |
| 1778004240 | 14.44° C | 84% | 1017.3 hPa | 0 mm | 0 m/s | 69 W/m² | - |
| 1778003936 | 14.44° C | 84% | 1017.1 hPa | 0 mm | 0 m/s | 63 W/m² | - |
| 1778003633 | 14.44° C | 84% | 1017.1 hPa | 0 mm | 0.89 m/s, 186° | 66 W/m² | - |
| 1778003329 | 14.44° C | 84% | 1017.3 hPa | 0 mm | 0.45 m/s, 126° | 70 W/m² | - |
| 1778003027 | 14.44° C | 84% | 1017.2 hPa | 0 mm | 0 m/s | 67 W/m² | - |
| 1778002723 | 14.44° C | 85% | 1017 hPa | 0 mm | 0 m/s | 70 W/m² | - |
| 1778002419 | 14.44° C | 85% | 1017.1 hPa | 0 mm | 0 m/s | 66 W/m² | - |
| 1778002116 | 13.89° C | 85% | 1017.2 hPa | 0 mm | 0.89 m/s, 214° | 65 W/m² | - |
| 1778001814 | 13.89° C | 84% | 1017.1 hPa | 0 mm | 0.89 m/s, 186° | 60 W/m² | - |
| 1778001514 | 13.89° C | 85% | 1017.2 hPa | 0 mm | 0 m/s | 64 W/m² | - |
| 1778001211 | 13.89° C | 85% | 1017.3 hPa | 0 mm | 0.45 m/s, 160° | 59 W/m² | - |
| 1778000907 | 13.89° C | 85% | 1017.2 hPa | 0 mm | 1.34 m/s, 225° | 50 W/m² | - |
| 1778000604 | 13.89° C | 86% | 1017.2 hPa | 0 mm | 0.45 m/s, 178° | 50 W/m² | - |
| 1778000299 | 13.89° C | 86% | 1017.1 hPa | 0 mm | 0 m/s | 45 W/m² | - |
| 1777999995 | 13.89° C | 86% | 1017.4 hPa | 0 mm | 0.45 m/s, 168° | 41 W/m² | - |
| 1777999691 | 13.89° C | 87% | 1017.1 hPa | 0 mm | 0.89 m/s, 195° | 38 W/m² | - |
| 1777999388 | 13.89° C | 87% | 1016.9 hPa | 0 mm | 0.45 m/s, 168° | 34 W/m² | - |
| 1777999086 | 13.89° C | 87% | 1017.2 hPa | 0 mm | 0 m/s | 34 W/m² | - |
* Rain latest hour (hover to see other rain measurements)
** Current wind speed in m/s (hover to see current wind gust speed)